Weather in Proletariy

Russia / Novgorod Oblast     58°26′14″N   31°42′29″E
temp.,
°C
wind,
m/s
gust,
m/s
humid.,
%
clouds,
%
prec.,
mm/h
press.,
hPa
HPBL,
m
9 may, sun
sun900:00+1wnw399759 0.0 1010268
03:000wnw279710 0.0 1012175
06:000wnw27925 0.0 1013218
09:00+7wnw36633 0.0 1015588
12:00+10wnw57405 0.0 10162007
15:00+12nw47325 0.0 10182285
18:00+12nw353761 0.0 10192101
21:00+6sw11575 0.0 102110
10 may, mon
mon1000:00+4s227111 0.0 102241
03:00+4s3976100 0.0 1023180
06:00+6s4126988 0.0 1023385
09:00+6s51282100 0.6 1024492
12:00+8s5147825 0.4 1024559
15:00+15ssw5853100 0.4 1024986
18:00+17ssw486070 0.0 1024970
21:00+12s3127999 0.0 1025276
11 may, tue
tue1100:00+11s4138080 0.0 1026304
03:00+8s31091100 0.0 1027211
06:00+8s398782 0.0 1027227
09:00+14s47625 0.0 1028445
12:00+18ssw464821 0.0 1028926
15:00+20s464556 0.0 10271203
18:00+20s25528 0.0 10261020
21:00+14se24773 0.0 102655
12 may, wed
wed1200:00+11se39821 0.0 1027161
03:00+9se25820 0.0 102784
06:00+9ese24795 0.0 102793
09:00+16ese24545 0.0 1026422
12:00+21ese34442 0.0 10251013
15:00+23ese464127 0.0 10231832
18:00+22ese4749100 0.0 10221711
21:00+15e38858 0.1 1022174
13 may, thu
thu1300:00+13ese3109341 0.1 1022284
03:00+13e31095100 0.1 1020283
06:00+15ese41183100 0.0 1019783
09:00+16se597879 0.1 1018939
12:00+19se6105752 0.6 10161719
15:00+12sse41390100 1.9 1016949
18:00+15sse48790 0.8 1016980
21:00+12se249024 0.9 101673